Regional Weather Roundup
Issued by NWS

Home | Current Version | Previous Version | Text Only | Print | Product List | Glossary On
Versions: 1 2 3 4 5 6 7 8 9 10 11 12 13 14 15 16 17 18 19 20 21 22 23 24 25 26 27 28 29 30 31 32 33 34 35 36 37 38 39 40 41 42 43 44 45 46 47 48 49 50
000
ASUS43 KDTX 290010
RWRMI
MICHIGAN HOURLY REGIONAL WEATHER ROUNDUP
NATIONAL WEATHER SERVICE DETROIT/PONTIAC MI
800 PM EDT TUE JUL 28 2015

NOTE: "FAIR" INDICATES FEW OR NO CLOUDS BELOW 12,000 FEET WITH NO
SIGNIFICANT WEATHER AND/OR OBSTRUCTION TO VISIBILITY.

MIZ047>049-052>055-059>063-066>070-074>076-081>083-290100-
SOUTHEAST LOWER MICHIGAN

CITY           SKY/WX    TMP DP  RH WIND       PRES   REMARKS
ADRIAN         MOCLDY    82  64  54 E7        29.96F
6HR MIN TEMP:  82; 6HR MAX TEMP:  89;

ALMA           SUNNY     81  64  57 E6        29.95F
ANN ARBOR      MOCLDY    83  63  50 S5        29.96F
BAD AXE        MOCLDY    80  65  58 CALM      29.99S
6HR MIN TEMP:  80; 6HR MAX TEMP:  90;

CARO           MOCLDY    85  66  53 SE3       29.96S
DETROIT CITY   MOCLDY    84  63  49 SE6       29.96F
6HR MIN TEMP:  84; 6HR MAX TEMP:  89;

DETROIT        MOCLDY    84  61  45 SE5       29.97S
6HR MIN TEMP:  83; 6HR MAX TEMP:  90;

FLINT          MOCLDY    87  64  46 SE10      29.96F
6HR MIN TEMP:  85; 6HR MAX TEMP:  92;

GROSSE ILE     MOCLDY    79  73  83 S6        29.95S
HILLSDALE      PTCLDY    83  67  57 CALM      29.97S
6HR MIN TEMP:  83; 6HR MAX TEMP:  87;

HOWELL         MOCLDY    84  60  44 S5        29.96F
6HR MIN TEMP:  84; 6HR MAX TEMP:  90;


CITY           SKY/WX    TMP DP  RH WIND       PRES   REMARKS
JACKSON        PTCLDY    84  61  45 VRB6      29.97S
6HR MIN TEMP:  84; 6HR MAX TEMP:  90;

LAMBERTVILLE   MOCLDY    82  66  57 E5        29.97S
6HR MIN TEMP:  82; 6HR MAX TEMP:  88;

LANSING        MOSUNNY   83  62  49 SE9       29.95F
6HR MIN TEMP:  83; 6HR MAX TEMP:  89;

LAPEER         FAIR      81  64  57 CALM      29.98S
MASON          PTCLDY    81  62  52 CALM      29.96S
MONROE         MOCLDY    80  66  62 CALM      29.95S
MT. CLEMENS    MOCLDY    81  68  65 E6        29.95F
6HR MIN TEMP:  81; 6HR MAX TEMP:  88;

PONTIAC        MOCLDY    87  57  35 SE6       29.97S
6HR MIN TEMP:  86; 6HR MAX TEMP:  91;

PORT HURON     MOCLDY    82  70  65 CALM      29.97F
TRI CITIES     MOCLDY    87  63  44 S5        29.96F
6HR MIN TEMP:  87; 6HR MAX TEMP:  90;

MIDLAND        FAIR      85  62  44 S3        29.95S
TROY           PTCLDY    87  59  39 SE5       29.99S
SAGINAW HB     MOCLDY    86  63  45 CALM      29.95S
$$
MIZ043>046-050>051-056>058-064>065-071>073-077>080-290100-
SOUTHWEST LOWER MICHIGAN

CITY           SKY/WX    TMP DP  RH WIND       PRES   REMARKS
BATTLE CREEK   SUNNY     85  63  47 S3        29.95F
6HR MIN TEMP:  85; 6HR MAX TEMP:  89;

BENTON HARBOR  MOSUNNY   86  71  60 SE5       29.93R HX  91
6HR MIN TEMP:  85; 6HR MAX TEMP:  90;

BIG RAPIDS     PTSUNNY   84  56  38 SE6       29.96R
6HR MIN TEMP:  84; 6HR MAX TEMP:  88;

COLDWATER      SUNNY     80  64  57 E6        29.95S
6HR MIN TEMP:  80; 6HR MAX TEMP:  86;

FREMONT        FAIR      82  60  45 CALM      29.94R
HOLLAND        PTSUNNY   85  68  56 S6        29.94R
6HR MIN TEMP:  85; 6HR MAX TEMP:  91;

GRAND RAPIDS   PTSUNNY   84  65  52 SE3       29.95R
6HR MIN TEMP:  84; 6HR MAX TEMP:  90;

IONIA          FAIR      82  64  53 SE3       29.94R
KALAMAZOO      SUNNY     84  65  52 CALM      29.95R
6HR MIN TEMP:  84; 6HR MAX TEMP:  90;

MARSHALL       SUNNY     82  66  58 CALM      29.94F
MOUNT PLEASANT MOSUNNY   82  62  50 E3        29.95S
6HR MIN TEMP:  82; 6HR MAX TEMP:  90;

MUSKEGON       PTSUNNY   86  63  45 W6        29.94R
6HR MIN TEMP:  85; 6HR MAX TEMP:  89;

SOUTH HAVEN    MOSUNNY   86  67  53 S5        29.94R
$$
MIZ016>042-290100-
NORTHERN LOWER MICHIGAN

CITY           SKY/WX    TMP DP  RH WIND       PRES   REMARKS
ALPENA         PTCLDY    82  68  62 E7        29.95F
6HR MIN TEMP:  82; 6HR MAX TEMP:  92;

BEAVER ISLAND  PTSUNNY   75  65  70 E7        29.93S
6HR MIN TEMP:  75; 6HR MAX TEMP:  86;

BELLAIRE       MOSUNNY   84  64  50 NE7       29.93S
6HR MIN TEMP:  84; 6HR MAX TEMP:  92;

CADILLAC       MOSUNNY   85  58  39 S8        29.98R
CHARLEVOIX     MOSUNNY   81  62  53 E6        29.96S
6HR MIN TEMP:  78; 6HR MAX TEMP:  86;

FRANKFORT      PTSUNNY   80  60  49 W5        29.93R
GAYLORD        PTSUNNY   84  63  49 VRB3      29.97S
6HR MIN TEMP:  84; 6HR MAX TEMP:  91;

GRAYLING       PTSUNNY   84  61  45 S3        29.98S
6HR MIN TEMP:  84; 6HR MAX TEMP:  91;

HARBOR SPRINGS PTSUNNY   81  63  53 CALM      29.93F
HOUGHTON LAKE  MOSUNNY   81  62  52 SE6       29.97F
6HR MIN TEMP:  81; 6HR MAX TEMP:  90;

MANISTEE       MOSUNNY   82  63  51 W5        29.94R
OSCODA         PTCLDY    80  64  59 SE8       29.96S
PELLSTON       CLOUDY    83  64  52 NW5       29.94F
6HR MIN TEMP:  83; 6HR MAX TEMP:  94;

ROGERS CITY    MOSUNNY   84  64  51 SE12      29.94F
TRAVERSE CITY  PTSUNNY   80  65  59 N6        29.92R
6HR MIN TEMP:  80; 6HR MAX TEMP:  93;

$$
MIZ007>008-015-290100-
EASTERN UPPER MICHIGAN

CITY           SKY/WX    TMP DP  RH WIND       PRES   REMARKS
KINROSS        PTSUNNY   82  61  47 S7        29.94F
6HR MIN TEMP:  82; 6HR MAX TEMP:  91;

MACKINAC ISLAN CLOUDY    82  61  49 CALM      29.94S
6HR MIN TEMP:  79; 6HR MAX TEMP:  87;

MUNISING         N/A     82  61  48 S6        29.88S
6HR MIN TEMP:  82; 6HR MAX TEMP:  87;

$$
MIZ004>006-011>014-085-290100-
CENTRAL UPPER MICHIGAN

CITY           SKY/WX    TMP DP  RH WIND       PRES   REMARKS
MANISTIQUE     CLOUDY    73  64  73 SE5       29.92S
ESCANABA       PTSUNNY   75  64  69 S6        29.90S
6HR MIN TEMP:  75; 6HR MAX TEMP:  82;

MENOMINEE      MOSUNNY   79  63  57 S9        29.89F
6HR MIN TEMP:  79; 6HR MAX TEMP:  84;

SAWYER-GWINN   SUNNY     81  63  54 S14G20    29.91S
$$
MIZ001>003-009>011-084-290100-
WESTERN UPPER MICHIGAN

CITY           SKY/WX    TMP DP  RH WIND       PRES   REMARKS
IRON MOUNTAIN  PTSUNNY   81  66  60 SE9       29.89F
6HR MIN TEMP:  81; 6HR MAX TEMP:  85;

HOUGHTON       MOSUNNY   82  65  56 S8        29.83F
6HR MIN TEMP:  79; 6HR MAX TEMP:  83;

COPPER HARBOR    N/A     79  62  56 SW9       29.82S
6HR MIN TEMP:  77; 6HR MAX TEMP:  85;

IRONWOOD       SUNNY     82  70  65 S12       29.78F
6HR MIN TEMP:  75; 6HR MAX TEMP:  84;

$$

ABBREVIATIONS USED IN REMARKS
   TC - TEMPERATURE IN CELSIUS
  WCI - WIND CHILL INDEX
   HX - HEAT INDEX
  VSB - VISIBILITY



USA.gov is the U.S. government's official web portal to all federal, state and local government web resources and services.